FW0880 Weather Reports


time (UTC)temp
C
wind
direction
speed
KPH
gust
KPH
rain 1hr
cm
rain 24hr
cm
rain mn
cm
humidity
%
barometer
mb
20260902230518 33 279 3.2 14.5 0.00 1.93 0.00 74 1007.8
20260902230006 33 79 6.4 14.5 0.00 1.93 0.00 73 1007.9
20260902225505 33 351 4.8 14.5 0.00 2.11 0.00 72 1007.9
20260902225011 33 322 4.8 14.5 0.00 2.11 0.00 71 1007.9
20260902224508 33 30 4.8 14.5 0.00 2.11 0.00 69 1007.8
20260902224016 33 316 4.8 12.9 0.00 2.11 0.00 68 1007.9
20260902223518 33 325 4.8 9.7 0.00 2.11 0.00 67 1007.9
20260902223025 33 360 6.4 16.1 0.00 2.11 0.00 65 1007.8
20260902222517 34 38 3.2 16.1 0.00 2.11 0.00 65 1007.7
20260902222027 34 68 4.8 12.9 0.00 2.11 0.00 65 1007.6
20260902221522 34 91 0.0 9.7 0.00 2.11 0.00 66 1007.6
20260902221010 33 30 3.2 12.9 0.00 2.11 0.00 65 1007.6
20260902220511 33 44 3.2 8.0 0.00 2.11 0.00 65 1007.7
20260902220017 33 72 3.2 8.0 0.00 2.11 0.00 66 1007.8
20260902215518 33 36 3.2 16.1 0.00 2.11 0.00 66 1007.9
20260902215018 33 140 6.4 16.1 0.00 2.11 0.00 68 1008.1
20260902214517 33 173 4.8 11.3 0.00 2.11 0.00 66 1008.4
20260902214023 33 173 1.6 8.0 0.00 2.11 0.00 64 1008.6
20260902213522 33 138 0.0 9.7 0.00 2.11 0.00 63 1008.7
20260902213131 34 138 1.6 9.7 0.00 2.11 0.00 64 1008.6
20260902212507 33 26 0.0 9.7 0.00 2.11 0.00 65 1008.7
20260902212012 33 344 3.2 9.7 0.00 2.11 0.00 66 1008.6
20260902211512 33 55 3.2 8.0 0.00 2.11 0.00 67 1008.6
20260902211021 33 360 3.2 9.7 0.00 2.11 0.00 66 1008.7
20260902210519 34 355 4.8 9.7 0.00 2.11 0.00 66 1008.8
20260902210023 34 5 3.2 8.0 0.00 2.11 0.00 64 1008.9
20260902205523 34 72 3.2 12.9 0.00 2.11 0.00 64 1009.1
20260902205008 34 310 6.4 14.5 0.00 2.11 0.00 64 1009.0
20260902204512 34 331 4.8 14.5 0.00 2.11 0.00 66 1009.1
20260902204014 34 298 6.4 14.5 0.00 2.11 0.00 65 1009.2
20260902203510 34 252 6.4 17.7 0.00 2.11 0.00 63 1009.2
20260902203021 35 278 8.0 17.7 0.00 2.11 0.00 63 1009.2
20260902202518 35 288 3.2 14.5 0.00 2.11 0.00 63 1009.1
20260902202023 35 286 8.0 12.9 0.00 2.11 0.00 61 1009.1
20260902201523 35 332 3.2 12.9 0.00 2.11 0.00 61 1009.1
20260902201005 35 342 6.4 12.9 0.00 2.11 0.00 61 1009.2
20260902200505 35 331 4.8 12.9 0.00 2.11 0.00 61 1009.2
20260902200021 35 214 3.2 11.3 0.00 2.11 0.00 60 1009.2
20260902195514 35 258 4.8 11.3 0.00 2.11 0.00 59 1009.2
20260902195018 35 259 1.6 12.9 0.00 2.11 0.00 62 1009.2
20260902194521 34 267 4.8 12.9 0.00 2.11 0.00 61 1009.4
20260902194022 34 327 3.2 12.9 0.00 2.11 0.00 62 1009.4
20260902193521 34 255 4.8 12.9 0.00 2.11 0.00 63 1009.5
20260902193010 34 304 4.8 14.5 0.00 2.11 0.00 63 1009.6
20260902192508 34 223 6.4 14.5 0.00 2.11 0.00 62 1009.6
20260902192013 33 263 4.8 14.5 0.00 2.11 0.00 62 1009.6
20260902191513 33 305 4.8 12.9 0.00 2.11 0.00 61 1009.8
20260902191016 33 277 3.2 12.9 0.00 2.11 0.00 61 1009.9
20260902190516 34 355 3.2 12.9 0.00 2.11 0.00 60 1010.0
20260902190009 33 252 3.2 12.9 0.00 2.11 0.00 62 1010.0
20260902185506 33 277 4.8 9.7 0.00 2.11 0.00 61 1010.1
20260902185009 33 177 4.8 11.3 0.00 2.11 0.00 61 1010.2
20260902184509 33 328 4.8 11.3 0.00 2.11 0.00 62 1010.2
20260902184012 33 236 4.8 11.3 0.00 2.11 0.00 63 1010.2
20260902183511 33 217 3.2 11.3 0.00 2.11 0.00 64 1010.3
20260902183020 33 237 3.2 9.7 0.00 2.11 0.00 63 1010.4
20260902182519 33 276 4.8 9.7 0.00 2.11 0.00 62 1010.5
20260902182006 33 317 3.2 11.3 0.00 2.11 0.00 60 1010.6
20260902181505 33 275 1.6 11.3 0.00 2.11 0.00 61 1010.6
20260902181010 33 256 4.8 11.3 0.00 2.11 0.00 59 1010.6
20260902180508 33 268 1.6 9.7 0.00 2.11 0.00 60 1010.7
20260902180014 33 259 3.2 9.7 0.00 2.11 0.00 60 1010.8
20260902175515 33 250 1.6 4.8 0.00 2.11 0.00 60 1010.9
20260902175021 33 217 0.0 6.4 0.00 2.11 0.00 61 1010.9
20260902174520 32 215 3.2 6.4 0.00 2.11 0.00 60 1010.9
20260902174026 32 210 3.2 6.4 0.00 2.11 0.00 60 1010.9
20260902173525 32 254 1.6 4.8 0.00 2.11 0.00 60 1011.0
20260902173009 32 279 0.0 4.8 0.00 2.11 0.00 67 1011.0
20260902172509 32 276 1.6 4.8 0.00 2.11 0.00 68 1010.9
20260902172020 32 275 1.6 4.8 0.00 2.11 0.00 68 1010.9
20260902171518 32 273 3.2 9.7 0.00 2.11 0.00 70 1010.9
20260902171025 31 261 0.0 6.4 0.00 2.11 0.00 71 1010.9
20260902170521 31 250 3.2 6.4 0.00 2.11 0.00 70 1010.8
20260902170008 31 267 0.0 6.4 0.00 2.11 0.00 71 1010.7
20260902165507 31 261 3.2 9.7 0.00 2.11 0.00 70 1010.6
20260902165016 31 240 3.2 9.7 0.00 2.11 0.00 70 1010.6
20260902164517 31 229 4.8 9.7 0.00 2.11 0.00 69 1010.5
20260902164020 31 263 3.2 9.7 0.00 2.11 0.00 69 1010.5
20260902163518 31 215 3.2 8.0 0.00 2.11 0.00 68 1010.5
20260902163020 32 226 4.8 8.0 0.00 2.11 0.00 66 1010.5
20260902162518 32 247 1.6 8.0 0.00 2.11 0.00 67 1010.4
20260902162025 32 259 1.6 6.4 0.00 2.11 0.00 67 1010.4
20260902161524 32 269 1.6 6.4 0.00 2.11 0.00 69 1010.3
20260902161009 31 207 0.0 1.6 0.00 2.11 0.00 68 1010.3
20260902160507 31 161 0.0 0.0 0.00 2.11 0.00 69 1010.2
20260902160017 31 92 0.0 0.0 0.00 2.11 0.00 69 1010.1
20260902155514 31 90 0.0 0.0 0.00 2.11 0.00 68 1010.1
20260902155023 31 100 0.0 0.0 0.00 2.11 0.00 67 1010.0
20260902154527 31 103 0.0 0.0 0.00 2.11 0.00 68 1010.0
20260902154007 30 103 0.0 0.0 0.00 2.11 0.00 69 1010.0
20260902153508 30 103 0.0 0.0 0.00 2.11 0.00 74 1010.0
20260902153012 30 103 0.0 0.0 0.00 2.11 0.00 74 1010.0
20260902152509 30 103 0.0 0.0 0.00 2.11 0.00 76 1010.0
20260902152021 29 103 0.0 0.0 0.00 2.11 0.00 75 1010.0
20260902151518 29 103 0.0 0.0 0.00 2.11 0.00 75 1010.0
20260902151022 28 103 0.0 0.0 0.00 2.11 0.00 76 1010.0
20260902150621 28 103 0.0 0.0 0.00 2.11 0.00 77 1009.9
20260902150025 28 103 0.0 0.0 0.00 2.11 0.00 77 1009.9
20260902145524 28 103 0.0 0.0 0.00 2.11 0.00 78 1009.9
20260902145009 28 103 0.0 0.0 0.00 2.11 0.00 80 1009.8
20260902144508 27 104 0.0 0.0 0.00 2.11 0.00 83 1009.8
20260902144018 27 104 0.0 0.0 0.00 2.11 0.00 87 1009.7
20260902143516 26 103 0.0 0.0 0.00 2.11 0.00 89 1009.7
20260902143020 26 103 0.0 1.6 0.00 2.11 0.00 91 1009.7
20260902142519 25 103 0.0 3.2 0.00 2.11 0.00 92 1009.7
20260902142023 25 103 0.0 3.2 0.00 2.11 0.00 92 1009.7
20260902141533 25 103 0.0 4.8 0.00 2.11 0.00 92 1009.7
20260902141015 25 103 1.6 4.8 0.00 2.11 0.00 92 1009.7
20260902140511 25 77 0.0 4.8 0.00 2.11 0.00 93 1009.7
20260902140018 25 77 0.0 4.8 0.00 2.11 0.00 92 1009.6
20260902135516 25 77 1.6 4.8 0.00 2.11 0.00 92 1009.5
20260902135020 25 79 0.0 0.0 0.00 2.11 0.00 92 1009.5
20260902134519 25 79 0.0 0.0 0.00 2.11 0.00 92 1009.5
20260902134027 25 79 0.0 0.0 0.00 2.11 0.00 93 1009.4
20260902133528 25 79 0.0 0.0 0.00 2.11 0.00 93 1009.3
20260902133008 25 79 0.0 0.0 0.00 2.11 0.00 92 1009.3
20260902132508 25 79 0.0 0.0 0.00 2.11 0.00 92 1009.3
20260902132011 25 80 0.0 0.0 0.00 2.11 0.00 92 1009.4
20260902131518 25 80 0.0 0.0 0.00 2.11 0.00 92 1009.3
20260902131021 25 80 0.0 0.0 0.00 2.11 0.00 92 1009.3
20260902130521 25 80 0.0 0.0 0.00 2.11 0.00 92 1009.2
20260902130007 25 79 0.0 0.0 0.00 2.11 0.00 92 1009.2
20260902125507 25 80 0.0 0.0 0.00 2.11 0.00 92 1009.2
20260902125012 25 80 0.0 0.0 0.00 2.11 0.00 92 1009.2
20260902124510 25 80 0.0 0.0 0.00 2.11 0.00 92 1009.2
20260902124019 25 80 0.0 0.0 0.00 2.11 0.00 92 1009.2
20260902123519 25 80 0.0 0.0 0.00 2.11 0.00 92 1009.2
20260902123021 25 80 0.0 0.0 0.00 2.11 0.00 92 1009.1
20260902122521 25 79 0.0 0.0 0.00 2.11 0.00 92 1009.1
20260902122005 25 79 0.0 0.0 0.00 2.11 0.00 92 1009.1
20260902121505 25 79 0.0 0.0 0.00 2.11 0.00 92 1009.0
20260902121013 25 79 0.0 0.0 0.00 2.11 0.00 92 1009.1
20260902120514 25 79 0.0 0.0 0.00 2.11 0.00 93 1009.1
20260902120021 25 80 0.0 0.0 0.00 2.11 0.00 93 1009.2
20260902115517 25 78 0.0 0.0 0.00 2.11 0.00 92 1009.1
20260902115022 25 78 0.0 0.0 0.00 2.11 0.00 92 1009.0
20260902114526 25 79 0.0 0.0 0.00 2.11 0.00 93 1009.0
20260902114007 25 78 0.0 0.0 0.00 2.11 0.00 92 1009.0
20260902113506 25 30 0.0 0.0 0.00 2.11 0.00 92 1009.1
20260902113015 25 30 0.0 0.0 0.00 2.11 0.00 93 1009.1
20260902112515 25 30 0.0 0.0 0.00 2.11 0.00 93 1009.1
20260902112017 25 30 0.0 0.0 0.00 2.11 0.00 93 1009.2
20260902111516 25 30 0.0 0.0 0.00 2.11 0.00 93 1009.2
20260902111023 25 30 0.0 0.0 0.00 2.11 0.00 93 1009.2
20260902110518 25 29 0.0 0.0 0.00 2.11 0.00 93 1009.3
20260902110013 25 30 0.0 0.0 0.00 2.11 0.00 93 1009.3
20260902105507 25 30 0.0 0.0 0.00 2.11 0.00 93 1009.2
20260902105012 25 30 0.0 0.0 0.00 2.11 0.00 93 1009.3
20260902104511 25 30 0.0 0.0 0.00 2.11 0.00 93 1009.4
20260902104020 25 30 0.0 0.0 0.00 2.11 0.00 93 1009.4
20260902103514 25 28 0.0 0.0 0.00 2.11 0.00 93 1009.5
20260902103021 25 28 0.0 0.0 0.00 2.11 0.00 93 1009.4
20260902102521 25 28 0.0 0.0 0.00 2.11 0.00 93 1009.5
20260902102006 25 28 0.0 0.0 0.00 2.11 0.00 93 1009.6
20260902101505 25 28 0.0 0.0 0.00 2.11 0.00 93 1009.7
20260902101009 25 28 0.0 0.0 0.00 2.11 0.00 93 1009.7
20260902100509 25 28 0.0 0.0 0.00 2.11 0.00 93 1009.8
20260902100030 25 28 0.0 0.0 0.00 2.11 0.00 93 1009.8
20260902095519 25 28 0.0 0.0 0.00 2.11 0.00 93 1009.9
20260902095023 25 28 0.0 0.0 0.00 2.11 0.00 93 1010.0
20260902094524 25 28 0.0 0.0 0.00 2.11 0.00 93 1010.0
20260902094008 25 28 0.0 0.0 0.00 2.11 0.00 93 1010.0
20260902093511 25 28 0.0 0.0 0.00 2.11 0.00 93 1010.0
20260902093017 25 28 0.0 1.6 0.00 2.11 0.00 93 1010.0
20260902092519 25 28 0.0 1.6 0.00 2.11 0.00 93 1010.1
20260902092023 25 28 0.0 1.6 0.00 2.11 0.00 93 1010.3
20260902091526 25 28 0.0 3.2 0.00 2.11 0.00 93 1010.3
20260902091022 25 28 1.6 6.4 0.00 2.11 0.00 93 1010.3
20260902090521 25 28 1.6 6.4 0.00 2.11 0.00 93 1010.4
20260902090008 25 122 1.6 3.2 0.00 2.11 0.00 93 1010.4
20260902085508 25 122 0.0 3.2 0.00 2.11 0.00 93 1010.5
20260902085016 25 122 0.0 3.2 0.00 2.11 0.00 93 1010.6
20260902084516 25 121 0.0 1.6 0.00 2.11 0.00 93 1010.6
20260902084020 25 121 0.0 1.6 0.00 2.11 0.00 93 1010.7
20260902083520 25 121 0.0 3.2 0.00 2.11 0.00 93 1010.8
20260902083020 25 121 0.0 3.2 0.00 2.11 0.00 93 1010.8
20260902082519 25 121 0.0 1.6 0.00 2.11 0.00 92 1010.9
20260902082007 25 121 0.0 1.6 0.00 2.11 0.00 93 1010.9
20260902081514 25 121 0.0 1.6 0.00 2.11 0.00 93 1011.0
20260902081012 25 121 0.0 0.0 0.00 2.11 0.00 93 1010.9
20260902080511 25 121 0.0 3.2 0.00 2.11 0.00 93 1011.0
20260902080018 25 121 0.0 3.2 0.00 2.11 0.00 93 1011.1
20260902075516 25 121 0.0 4.8 0.00 2.11 0.00 93 1011.1
20260902075022 25 129 0.0 4.8 0.00 2.11 0.00 93 1011.2
20260902074523 25 128 1.6 4.8 0.00 2.11 0.00 93 1011.2
20260902074007 25 130 0.0 0.0 0.00 2.11 0.00 92 1011.3
20260902073507 25 130 0.0 0.0 0.00 2.11 0.00 92 1011.3
20260902073012 25 130 0.0 0.0 0.00 2.11 0.00 92 1011.5
20260902072510 25 130 0.0 0.0 0.00 2.11 0.00 92 1011.7
20260902072021 25 130 0.0 0.0 0.00 2.11 0.00 92 1011.8
20260902071526 25 130 0.0 0.0 0.00 2.11 0.00 92 1011.8
20260902071022 25 130 0.0 0.0 0.00 2.11 0.00 92 1011.9
20260902070520 25 130 0.0 0.0 0.00 2.11 0.00 92 1011.9
20260902070008 25 130 0.0 0.0 0.00 2.11 0.00 92 1011.9
20260902065506 25 130 0.0 0.0 0.00 2.11 0.00 92 1012.0
20260902065016 25 130 0.0 0.0 0.00 2.11 0.00 92 1012.0
20260902064515 25 130 0.0 0.0 0.03 2.11 0.00 92 1012.1
20260902064019 25 130 0.0 1.6 0.03 2.11 0.00 92 1012.1
20260902063520 25 130 0.0 1.6 0.03 2.11 0.00 92 1012.2
20260902063023 25 130 0.0 3.2 0.03 2.11 0.00 92 1012.2
20260902062523 25 130 0.0 3.2 0.03 2.11 0.00 92 1012.3
20260902062010 25 130 0.0 1.6 0.03 2.11 0.00 92 1012.3
20260902061510 25 130 0.0 3.2 0.03 2.11 0.00 92 1012.3
20260902061016 25 130 0.0 3.2 0.03 2.11 0.00 92 1012.3
20260902060515 25 130 0.0 3.2 0.03 2.11 0.00 92 1012.3
20260902060020 25 130 0.0 0.0 0.03 2.11 0.00 92 1012.4
20260902055522 25 130 0.0 0.0 0.03 2.11 2.11 92 1012.5
20260902055023 25 130 0.0 0.0 0.05 2.11 2.11 92 1012.4
20260902054523 25 130 0.0 0.0 0.03 2.08 2.08 92 1012.4
20260902054011 25 130 0.0 0.0 0.03 2.08 2.08 92 1012.5
20260902053511 25 130 0.0 0.0 0.03 2.08 2.08 92 1012.5
20260902053027 25 130 0.0 0.0 0.03 2.08 2.08 92 1012.5
20260902052519 25 130 0.0 0.0 0.03 2.08 2.08 92 1012.5
20260902052015 25 130 0.0 0.0 0.03 2.08 2.08 92 1012.5
20260902051515 25 130 0.0 0.0 0.03 2.08 2.08 92 1012.5
20260902051023 25 130 0.0 1.6 0.03 2.08 2.08 92 1012.5
20260902050521 25 130 0.0 3.2 0.03 2.08 2.08 92 1012.4
20260902050009 25 130 0.0 3.2 0.03 2.08 2.08 92 1012.5
20260902045506 25 130 0.0 3.2 0.03 2.11 2.08 92 1012.5
20260902045011 25 130 1.6 3.2 0.00 2.11 2.06 92 1012.6
20260902044512 25 130 0.0 1.6 0.00 2.11 2.06 92 1012.6
20260902044020 25 130 0.0 3.2 0.00 2.11 2.06 92 1012.6
20260902043519 25 130 0.0 3.2 0.03 2.11 2.06 92 1012.6
20260902043027 25 130 0.0 3.2 0.03 2.11 2.06 92 1012.6
20260902042524 25 130 0.0 3.2 0.03 2.11 2.06 92 1012.5
20260902042008 25 147 0.0 4.8 0.05 2.11 2.06 92 1012.5
20260902041509 25 147 0.0 0.0 0.05 2.11 2.06 92 1012.5
20260902041017 25 147 0.0 0.0 0.05 2.11 2.06 92 1012.5
20260902040518 25 147 0.0 1.6 0.08 2.11 2.06 92 1012.6
20260902040021 25 147 0.0 3.2 0.15 2.11 2.06 91 1012.6
20260902035520 25 147 0.0 3.2 0.15 4.75 2.06 91 1012.5
20260902035025 26 147 1.6 3.2 0.18 4.75 2.06 92 1012.5
20260902034525 26 148 0.0 3.2 0.20 4.75 2.06 92 1012.6
20260902034009 26 148 0.0 3.2 0.20 4.72 2.03 92 1012.6
20260902033510 26 148 0.0 4.8 0.23 4.72 2.03 92 1012.7
20260902033020 26 148 0.0 4.8 0.28 4.72 2.03 92 1012.7
20260902032515 26 148 0.0 0.0 0.30 4.72 2.03 92 1012.7
20260902032017 26 148 0.0 0.0 0.33 4.70 2.03 91 1012.7
20260902031517 26 148 0.0 0.0 0.38 4.70 2.03 91 1012.6
20260902031022 26 148 0.0 0.0 0.41 4.67 2.01 91 1012.7
20260902030520 26 148 0.0 0.0 0.41 4.65 1.96 91 1012.6
20260902030009 26 148 0.0 0.0 0.41 4.60 1.93 91 1012.6
20260902025509 26 148 0.0 3.2 0.43 4.57 1.91 91 1012.5
20260902025014 26 148 0.0 3.2 0.46 4.57 1.88 91 1012.3
20260902024513 26 360 0.0 0.0 0.46 4.55 1.85 91 1012.4
20260902024017 26 350 0.0 0.0 0.43 4.50 1.83 91 1012.4
20260902023517 26 350 0.0 0.0 0.46 4.47 1.80 91 1012.5
20260902023025 26 350 0.0 0.0 0.46 4.45 1.75 91 1012.3
20260902022522 26 350 0.0 0.0 0.46 4.42 1.75 91 1012.1
20260902022007 26 350 0.0 0.0 0.43 4.37 1.68 91 1011.9
20260902021512 26 350 0.0 0.0 0.43 4.32 1.65 91 1011.7
20260902021012 26 350 0.0 0.0 0.36 4.27 1.57 91 1011.6
20260902020511 26 350 0.0 3.2 0.33 4.22 1.55 91 1011.6
20260902020021 26 350 0.0 3.2 0.33 4.19 1.52 91 1011.4
20260902015519 26 349 0.0 4.8 0.28 4.14 1.42 91 1011.3
20260902015024 26 348 0.0 6.4 0.25 4.09 1.42 91 1011.2
20260902014534 26 349 1.6 6.4 0.23 4.09 1.40 91 1011.2
20260902014028 26 19 0.0 8.0 0.23 4.04 1.37 91 1011.2
20260902013527 26 336 1.6 8.0 0.23 4.01 1.35 91 1011.2
20260902013011 26 355 3.2 4.8 0.33 3.99 1.30 91 1011.0
20260902012510 26 22 1.6 12.9 0.51 3.96 1.27 90 1010.9
20260902012015 26 35 3.2 12.9 0.66 3.91 1.24 91 1010.8
20260902011531 26 38 0.0 8.0 0.71 3.91 1.22 91 1010.8
20260902011018 26 40 1.6 8.0 0.71 3.91 1.22 90 1010.9
20260902010516 26 49 1.6 9.7 0.71 3.89 1.19 90 1010.9
20260902010024 26 52 3.2 8.0 0.69 3.86 1.17 90 1010.8
20260902005518 26 64 3.2 8.0 0.66 3.84 1.17 90 1010.8
20260902005025 26 53 1.6 6.4 0.69 3.84 1.17 90 1010.6
20260902004532 26 59 3.2 6.4 0.69 3.84 1.17 90 1010.6
20260902004007 26 40 1.6 6.4 0.66 3.81 1.14 90 1010.7
20260902003508 26 61 0.0 4.8 0.61 3.78 1.09 90 1010.8
20260902003012 26 68 1.6 9.7 0.46 3.63 0.94 90 1010.7
20260902002512 26 82 3.2 9.7 0.25 3.43 0.71 90 1010.7
20260902002021 26 148 0.0 3.2 0.10 3.25 0.56 90 1010.6
20260902001523 26 182 0.0 3.2 0.05 3.17 0.51 90 1010.5
20260902001023 26 184 0.0 3.2 0.08 3.17 0.51 90 1010.4
20260902000523 26 184 0.0 8.0 0.20 3.17 0.51 90 1010.5
20260902000008 26 188 1.6 9.7 0.33 3.17 0.51 89 1010.4
20260901235508 26 205 3.2 11.3 0.36 3.17 0.51 89 1010.4
20260901235016 26 227 6.4 20.9 0.33 3.15 0.48 89 1010.3
20260901234543 26 180 4.8 20.9 0.33 3.15 0.48 89 1010.2
20260901234017 26 161 8.0 14.5 0.33 3.15 0.48 89 1010.0
20260901233517 26 169 8.0 16.1 0.33 3.15 0.48 88 1010.0
20260901233017 26 213 9.7 17.7 0.33 3.15 0.48 88 1009.9
20260901232517 27 157 9.7 16.1 0.33 3.15 0.48 87 1009.9
20260901232008 27 220 9.7 16.1 0.33 3.15 0.46 87 1009.7
20260901231510 27 214 9.7 19.3 0.33 3.12 0.43 86 1009.6
20260901231010 27 240 9.7 16.1 0.36 3.07 0.41 86 1009.5